Location: Unspecified
(49.9820°N, 20.4363°E)
Time: 14:50:19
(UTC+02:00)

ISS - Pass Details

Date: 20 May 2018
Orbit: 402 x 407 km, 51.6° (Epoch: 22 May)

Event Time Altitude Azimuth Distance (km) Brightness Sun altitude
Rises 21:33:01 0° 202° (SSW) 2,308 -0.2 -9.2°
Reaches altitude 10° 21:35:38 10° 180° (S) 1,453 -1.5 -9.5°
Maximum altitude 21:37:43 16° 140° (SE) 1,143 -2.2 -9.7°
Drops below altitude 10° 21:39:50 10° 99° (E) 1,458 -1.5 -10.0°
Sets 21:42:27 0° 77° (ENE) 2,320 -0.3 -10.2°
